Regional Weather Roundup
Issued by NWS

Home | Current Version | Previous Version | Graphics & Text | Print | Product List | Glossary On
Versions: 1 2 3 4 5 6 7 8 9 10 11 12 13 14 15 16 17 18 19 20 21 22 23 24 25 26 27 28 29 30 31 32 33 34 35 36 37 38 39 40 41 42 43 44 45 46 47 48 49 50
000
ASUS43 KIND 020309
RWRIN

WEATHER ROUNDUP FOR INDIANA
NATIONAL WEATHER SERVICE INDIANAPOLIS IN
1000 PM EST SUN MAR 01 2015

NOTE: "FAIR" INDICATES FEW OR NO CLOUDS BELOW 12,000 FEET WITH NO
SIGNIFICANT WEATHER AND/OR OBSTRUCTIONS TO VISIBILITY.

* - STATION DOES NOT REPORT WEATHER SUCH AS PRECIPITATION OR FOG.

+ - STATION NOT QUALITY CONTROLLED BY THE NATIONAL WEATHER SERVICE.
    USE DATA WITH CAUTION...ESPECIALLY DEWPOINT AND RELATIVE
    HUMIDITY OBSERVATIONS.

INZ001>003-010>013-019-020-020400-
NORTHWEST INDIANA

CITY           SKY/WX    TMP DP  RH WIND       PRES   REMARKS
GARY /AIRPORT/ CLEAR     22  12  65 SW6       30.33R WCI  15
KNOX *+          N/A     19   9  63 W9        30.32R WCI   9
LA PORTE +     PTCLDY    20  15  81 W8        30.31R WCI  10
MICHIGAN CITY+ MOCLDY    21  12  68 W7        30.31R WCI  13
MONTICELLO +   PTCLDY    16  14  93 W5        30.34R WCI   9
RENSSELAER +   PTCLDY    18  18 100 W9        30.35R WCI   6
VALPARAISO     CLEAR     18  13  80 W12       30.32R WCI   5

$$

LMZ046-743>745-020400-
SOUTHERN LAKE MICHIGAN

STATION/POSITION TIME  TEMP WIND        PRES
                       AIR  DIR/SP/G
                 (UTC) (F)  (DEG/KT/KT) (MB)
MICHIGAN CITY    0300   19  220/ 13/ 15   N/A

$$

INZ004-005-014>016-021>024-020400-
NORTH CENTRAL INDIANA

CITY           SKY/WX    TMP DP  RH WIND       PRES   REMARKS
GOSHEN         CLOUDY    20  15  81 W10       30.27S WCI   9
LOGANSPORT +   PTCLDY    14  12  92 W9        30.34R WCI   2
PERU/GRISSOM   MOCLDY    15  13  92 W9        30.31R WCI   4
ROCHESTER +    MOCLDY    21  19  93 W8        30.31R WCI  12
SOUTH BEND     MOCLDY    21  15  78 W12       30.29R WCI   9
WARSAW +       CLOUDY    21  19  93 W9        30.29R WCI  11

$$

INZ006>009-017-018-025>027-020400-
NORTHEAST INDIANA

CITY           SKY/WX    TMP DP  RH WIND       PRES   REMARKS
ANGOLA *+      CLOUDY    21  18  86 W6        30.24S WCI  14
AUBURN +       CLOUDY    23  19  86 W9        30.27R WCI  13
FORT WAYNE     MOCLDY    19  16  88 W13       30.29R WCI   6
HUNTINGTON +   MOCLDY    19  15  83 W7        30.30R WCI  10

$$

INZ028-029-035-036-043>045-051>053-020400-
WEST CENTRAL INDIANA

CITY           SKY/WX    TMP DP  RH WIND       PRES   REMARKS
CRAWFORDSVL +  MOCLDY    21  16  79 W9        30.36R WCI  11
GREENCASTLE +  CLOUDY    27  21  80 W5        30.35R WCI  21
LAFAYETTE      MOCLDY    18  16  92 W7        30.37R WCI   9
TERRE HAUTE    MOCLDY    25  20  81 NW10      30.39R WCI  15

$$

INZ030>032-037>040-046>048-054>057-064-065-020400-
CENTRAL INDIANA

CITY           SKY/WX    TMP DP  RH WIND       PRES   REMARKS
CP ATTERBURY + CLOUDY    32  28  86 NW12      30.34R WCI  23
COLUMBUS       CLOUDY    30  27  86 NW9       30.35R WCI  22
FRANKFORT +    PTCLDY    11   9  92 SW9       30.36R FOG     WCI  -2
GREENWOOD *+   CLOUDY    27  21  80 NW7       30.34R WCI  19
INDIANAPOLIS   CLOUDY    26  21  81 NW10      30.33R WCI  16
-EAGLE CREEK   MOCLDY    24  21  88 W9        30.34R WCI  14
KOKOMO *+      PTCLDY    16  14  93 W10       30.33R WCI   3
MARION +       PTCLDY    13  10  90 W10       30.32R WCI   0
MT COMFORT *+  MOCLDY    27  19  74 NW9       30.33R WCI  17
SHELBYVILLE    CLOUDY    30  24  78 NW12      30.33R WCI  20
ZIONSVILLE +   MOCLDY    24  19  83 W8        30.34R WCI  15

$$

INZ033-034-041-042-049-050-058-059-020400-
EAST CENTRAL INDIANA

CITY           SKY/WX    TMP DP  RH WIND       PRES   REMARKS
MUNCIE         CLOUDY    24  20  84 W8        30.30R WCI  15

$$

INZ060-061-067>069-081>083-085>088-020400-
SOUTHWEST INDIANA

CITY           SKY/WX    TMP DP  RH WIND       PRES   REMARKS
EVANSVILLE     CLOUDY    33  26  75 NW10G17   30.40R WCI  25
HUNTINGBURG *+ PTCLDY    32  28  86 NW10      30.38R WCI  24
WASHINGTON +   CLOUDY    30  26  85 NW10      30.38R WCI  21

$$

INZ062-063-066-070>080-084-089>092-020400-
SOUTH CENTRAL AND SOUTHEAST INDIANA

CITY           SKY/WX    TMP DP  RH WIND       PRES   REMARKS
BLOOMINGTON    CLOUDY    29  24  82 NW8       30.34R WCI  21
NORTH VERNON + CLOUDY    32  32 100 W7        30.32R WCI  26
SEYMOUR +      CLOUDY    34  30  86 NW13G18   30.34R WCI  25

$$



USA.gov is the U.S. government's official web portal to all federal, state and local government web resources and services.